This demonstration page uses our WeatherBlox Daily Observations layout. Learn more.

Left ArrowRight Arrow

36.19886, -115.1175

Hourly Observations for April 12, 2021

Temp ( °F °C ) Dew Point ( °F °C ) Humidity (%) Winds ( mph kmh ) Pressure ( in mb ) Visibility ( mi km ) Precip ( " mm )
12:53 am 00:53 Clear 72 22.2 10 -12.2 9 9 NNW 10 17 29.62 1003 10 16 N/A
1:53 am 01:53 Clear 72 22.2 9 -12.8 8 8 NW 14 22 29.62 1003 10 16 N/A
2:53 am 02:53 Clear 71 21.7 7 -13.9 8 8 N 16 26 29.63 1003 10 16 N/A
3:53 am 03:53 Clear 69 20.6 6 -14.4 8 8 NNW 17 28 29.63 1003 10 16 N/A
4:53 am 04:53 Clear 68 20 7 -13.9 9 9 N N/A 29.66 1004 10 16 N/A
5:53 am 05:53 Clear 68 20 10 -12.2 10 10 NW 14 22 29.67 1005 10 16 N/A
6:53 am 06:53 Sunny 68 20 11 -11.7 11 11 NNW 16 26 29.70 1006 10 16 N/A
7:53 am 07:53 Sunny 70 21.1 12 -11.1 10 10 NNW 15 24 29.72 1006 10 16 N/A
8:53 am 08:53 Sunny 73 22.8 12 -11.1 9 9 NNW 10 17 29.72 1007 10 16 N/A
9:53 am 09:53 Sunny 74 23.3 12 -11.1 9 9 SSE 6 9 29.75 1007 10 16 N/A
10:53 am 10:53 Sunny 76 24.4 12 -11.1 9 9 VRB 7 11 29.74 1007 10 16 N/A
11:53 am 11:53 Sunny 79 26.1 12 -11.1 8 8 VRB 3 6 29.73 1007 10 16 N/A
12:53 pm 12:53 Sunny 80 26.7 13 -10.6 8 8 N N/A 29.71 1006 10 16 N/A
1:53 pm 13:53 Sunny 82 27.8 12 -11.1 7 7 undefined N/A 29.69 1005 10 16 N/A
2:53 pm 14:53 Sunny 83 28.3 11 -11.7 6 6 SE 9 15 29.66 1004 10 16 N/A
3:53 pm 15:53 Sunny 84 28.9 12 -11.1 6 6 ESE 7 11 29.63 1004 10 16 N/A
4:53 pm 16:53 Sunny 85 29.4 12 -11.1 6 6 N N/A 29.62 1003 10 16 N/A
5:53 pm 17:53 Sunny 85 29.4 12 -11.1 6 6 VRB 3 6 29.61 1003 10 16 N/A
6:53 pm 18:53 Sunny 83 28.3 12 -11.1 7 7 ESE 7 11 29.60 1002 10 16 N/A
7:53 pm 19:53 Clear 80 26.7 13 -10.6 8 8 E 5 7 29.61 1003 10 16 N/A
8:53 pm 20:53 Clear 80 26.7 16 -8.9 9 9 N N/A 29.62 1003 10 16 N/A
9:53 pm 21:53 Clear 77 25 14 -10 9 9 N N/A 29.62 1003 10 16 N/A
10:53 pm 22:53 Clear 72 22.2 18 -7.8 13 13 NW 3 6 29.62 1003 10 16 N/A
11:53 pm 23:53 Clear 71 21.7 20 -6.7 14 14 SSW 6 9 29.62 1003 10 16 N/A

Powered by AerisWeather